Location: Bothwell
(42.3833°S, 147.0000°E)
Time: 00:56:59
(UTC+10:00)

CUBEBUG 2 - Visible Passes

Search period start: 28 September 2023 00:00
Search period end: 08 October 2023 01:00
Orbit: 575 x 682 km, 97.8° (Epoch: 26 September)

Date Brightness Start Highest point End Pass type
(mag) Time Alt. Az. Time Alt. Az. Time Alt. Az.
02 Oct ? 02:28:52 10° S 02:28:52 10° S 02:28:54 10° S visible
03 Oct ? 02:48:52 10° SSW 02:48:52 10° SSW 02:48:52 10° SSW visible
05 Oct ? 01:51:28 11° SSE 01:51:28 11° SSE 01:51:46 10° SSE visible
06 Oct ? 02:11:26 13° S 02:11:26 13° S 02:11:57 10° S visible
07 Oct ? 02:31:22 14° S 02:31:22 14° S 02:31:59 10° S visible
